Home   Weather   El Monte   Past weeks
Flag for USA

Past Weather in El Monte, California, USA — Yesterday and Last 2 Weeks

Now
63 °F

Scattered clouds.


Feels Like: 63 °F
Forecast: 59 / 54 °F
Wind: 8 mph from Southwest

Location: Fullerton Municipal Airport

Current Time: May 25, 2019 at 8:14:18 pm

Latest Report: May 25, 2019 at 6:53 pm


Visibility: 10 mi

Pressure: 29.86 "Hg

Humidity: 65%

Dew Point: 51 °F

Location of El MonteLocation

Past Weather in El Monte — Graph

°F

El Monte Temperature Yesterday

Maximum temperature yesterday: 74 °F (at 1:53 pm)
Minimum temperature yesterday: 52 °F (at 4:53 am)
Average temperature yesterday: 63 °F

High & Low Weather Summary for the Past Weeks

 TemperatureHumidityPressure
High77 °F (May 11, 1:53 pm)90% (May 16, 7:33 am)30.03 "Hg (May 16, 7:33 am)
Low52 °F (May 24, 4:53 am)32% (May 17, 3:53 pm)29.70 "Hg (May 22, 4:53 am)
Average63 °F66%29.91 "Hg
* Reported May 10 6:53 pm — May 25 6:53 pm, El Monte. Weather by CustomWeather, © 2019

Note: Actual official high and low records may vary slightly from our data, if they occured in-between our weather recording intervals... More about our weather records

Advertising

El Monte Weather History for the Previous 24 Hours

Scroll right to see more
 ConditionsComfort  
Time TempWeatherWind HumidityBarometerVisibility
6:53 pm
Sat, May 25
63 °FScattered clouds.8 mph65%29.86 "Hg10 mi
5:53 pm66 °FScattered clouds.8 mph59%29.85 "Hg10 mi
4:53 pm67 °FPassing clouds.7 mph55%29.85 "Hg10 mi
3:53 pm69 °FScattered clouds.9 mph47%29.85 "Hg10 mi
2:53 pm70 °FPassing clouds.6 mph47%29.87 "Hg10 mi
1:53 pm70 °FScattered clouds.10 mph47%29.88 "Hg10 mi
12:53 pm70 °FPartly sunny.7 mph51%29.89 "Hg10 mi
12:00 pm67 °FPartly sunny.5 mph55%29.91 "Hg10 mi
10:53 am66 °FPartly sunny.7 mph56%29.91 "Hg10 mi
9:53 am62 °FOvercast.5 mph67%29.91 "Hg10 mi
9:16 am61 °FCool.5 mph70%29.92 "HgN/A
8:53 am61 °FPartly sunny.5 mph72%29.91 "Hg10 mi
8:00 am59 °FPartly sunny.3 mph81%29.90 "Hg10 mi
7:27 am59 °FPassing clouds.No wind78%29.90 "Hg10 mi
7:12 am57 °FScattered clouds.3 mph81%29.89 "Hg10 mi
5:53 am55 °FPartly sunny.No wind77%29.88 "Hg10 mi
4:53 am55 °FClear.5 mph77%29.87 "Hg10 mi
3:53 am57 °FClear.3 mph74%29.88 "Hg10 mi
2:53 am58 °FClear.3 mph72%29.88 "Hg10 mi
1:53 am59 °FClear.No wind72%29.89 "Hg10 mi
12:53 am59 °FClear.No wind72%29.89 "Hg10 mi
11:53 pm
Fri, May 24
60 °FClear.3 mph69%29.91 "Hg10 mi
10:53 pm60 °FClear.No wind67%29.91 "Hg10 mi
9:53 pm61 °FClear.No wind62%29.90 "Hg10 mi
8:53 pm62 °FClear.6 mph60%29.90 "Hg10 mi
Weather by CustomWeather, © 2019

See weather overview